Location: Gleizolles
(44.4833°N, 6.7667°E)
Time: 13:45:12
(UTC+00:00)

XW-2D - Visible Passes

Search period start: 08 December 2022 00:00
Search period end: 18 December 2022 00:00
Orbit: 490 x 509 km, 97.5° (Epoch: 08 December)

Date Brightness Start Highest point End Pass type
(mag) Time Alt. Az. Time Alt. Az. Time Alt. Az.
08 Dec ? 04:55:39 10° NE 04:58:18 19° E 05:00:57 10° SE visible
08 Dec ? 17:07:51 10° S 17:11:26 53° W 17:15:01 10° NNW visible
09 Dec ? 04:37:13 10° ENE 04:38:21 11° E 04:39:29 10° ESE visible
09 Dec ? 06:08:51 10° N 06:12:23 51° WNW 06:15:55 10° SSW visible
09 Dec ? 16:47:59 10° SSE 16:51:38 84° ENE 16:55:17 10° N visible
10 Dec ? 05:48:57 10° NNE 05:52:37 88° E 05:56:15 10° SSW visible
10 Dec ? 16:28:22 10° SSE 16:31:52 46° ENE 16:35:22 10° N visible
10 Dec ? 18:04:17 10° WSW 18:05:51 12° W 18:07:25 10° WNW visible
11 Dec ? 05:29:14 10° NNE 05:32:46 48° E 05:36:18 10° S visible
11 Dec ? 17:43:04 10° SW 17:45:52 21° W 17:48:40 10° NW visible
12 Dec ? 05:09:42 10° NE 05:12:52 27° E 05:16:01 10° SSE visible
12 Dec ? 17:22:33 10° SSW 17:25:55 35° W 17:29:18 10° NNW visible
13 Dec ? 04:50:31 10° NE 04:52:54 16° E 04:55:16 10° SE visible
13 Dec ? 06:23:24 10° N 06:26:44 34° WNW 06:30:03 10° SW visible
13 Dec ? 17:02:25 10° S 17:06:01 64° WSW 17:09:38 10° NNW visible
14 Dec ? 06:03:20 10° N 06:06:57 60° WNW 06:10:32 10° SSW visible
14 Dec ? 16:42:33 10° SSE 16:46:09 70° ENE 16:49:47 10° N visible
15 Dec ? 05:43:26 10° NNE 05:47:05 75° ESE 05:50:44 10° S visible
15 Dec ? 16:22:56 10° SE 16:26:20 39° ENE 16:29:44 10° N visible
15 Dec ? 17:58:12 10° SW 18:00:15 14° W 18:02:17 10° WNW visible
16 Dec ? 05:23:42 10° NNE 05:27:10 40° E 05:30:38 10° S visible
16 Dec ? 17:37:12 10° SSW 17:40:11 24° W 17:43:12 10° NW visible
17 Dec ? 05:04:10 10° NE 05:07:10 24° E 05:10:10 10° SSE visible
17 Dec ? 17:16:45 10° S 17:20:12 41° W 17:23:40 10° NNW visible
